This is the latest recevied weather packets stored in our database for station/object R2AKT-13. If no packets are shown the sender has not sent any weather packets the latest 10 day(s).
| Time | Temp. | Humidity | Pressure | Rain* | Wind** | Luminosity | Snow |
|---|---|---|---|---|---|---|---|
| 1778044524 | 17.22° C | 64% | 983.8 hPa | - | 0 m/s | - | - |
| 1778043974 | 17.22° C | 64% | 983.7 hPa | - | 0.45 m/s, 263° | - | - |
| 1778043394 | 17.22° C | 65% | 983.6 hPa | - | 0 m/s | - | - |
| 1778042864 | 17.22° C | 60% | 983.5 hPa | - | 0.45 m/s, 277° | - | - |
| 1778042354 | 17.78° C | 59% | 983.1 hPa | - | 0 m/s | - | - |
| 1778041784 | 17.78° C | 58% | 983 hPa | - | 0 m/s | - | - |
| 1778041254 | 17.22° C | 60% | 982.9 hPa | - | 0 m/s | - | - |
| 1778040709 | 16.67° C | 63% | 982.9 hPa | - | 0.45 m/s, 182° | - | - |
| 1778040199 | 16.67° C | 60% | 983 hPa | - | 0 m/s | - | - |
| 1778039714 | 16.11° C | 66% | 982.9 hPa | - | 0 m/s | - | - |
| 1778039149 | 15° C | 71% | 983 hPa | - | 0 m/s | - | - |
| 1778038619 | 17.22° C | 56% | 982.8 hPa | - | 0 m/s | - | - |
| 1778038109 | 17.22° C | 59% | 982.7 hPa | - | 0 m/s | - | - |
| 1778037529 | 17.78° C | 56% | 982.7 hPa | - | 0 m/s | - | - |
| 1778037029 | 17.22° C | 55% | 982.8 hPa | - | 0 m/s | - | - |
| 1778036469 | 17.22° C | 54% | 982.8 hPa | - | 0 m/s | - | - |
| 1778035919 | 17.22° C | 55% | 982.9 hPa | - | 0 m/s | - | - |
| 1778035364 | 16.11° C | 59% | 983.1 hPa | - | 0.45 m/s, 315° | - | - |
| 1778034854 | 16.11° C | 62% | 983.3 hPa | - | 0 m/s | - | - |
| 1778034274 | 16.11° C | 62% | 983.2 hPa | - | 0 m/s | - | - |
| 1778033689 | 16.11° C | 61% | 983.1 hPa | - | 0 m/s | - | - |
| 1778033124 | 16.11° C | 63% | 983.1 hPa | - | 0 m/s | - | - |
| 1778032569 | 16.11° C | 61% | 983 hPa | - | 0 m/s | - | - |
| 1778031999 | 16.11° C | 62% | 983.1 hPa | - | 0 m/s | - | - |
| 1778031474 | 16.11° C | 64% | 983.1 hPa | - | 0.45 m/s, 311° | - | - |
* Rain since midnight (hover to see other rain measurements)
** Current wind speed in m/s (hover to see current wind gust speed)